Вернуться в каталог

COSMOS 1285 DEB

LostHEO
NORAD 28558·DEBRIS·🇷🇺 Russia

Запущен Aug 4, 1981 с Plesetsk Cosmodrome

Loading…

Ближайшие Пролёты (ближайшие 24 часа)

TLE

УстаревшееSource: Space-Track

Эпоха: Aug 23, 2015, 19:31 UTC

1 28558U 81071S   15235.81324521  .00000719  00000-0  00000+0 0  9993
2 28558  69.1748 328.2376 5601726  99.4286 333.8060  1.97667381 89155

Отслеживайте COSMOS 1285 DEB в реальном времени с AllMySat

Download on the App Store